Regional Weather Roundup
Issued by NWS Grand Forks, ND

Home | Current Version | Previous Version | Graphics & Text | Print | Product List | Glossary On
Versions: 1 2 3 4 5 6 7 8 9 10 11 12 13 14 15 16 17 18 19 20 21 22 23 24 25 26 27 28 29 30 31 32 33 34 35 36 37 38 39 40 41 42 43 44 45 46 47 48 49 50
000
ASUS43 KFGF 200631
RWRFGF
PRAIRIE TO PINES  WEATHER ROUNDUP
NATIONAL WEATHER SERVICE EASTERN NORTH DAKOTA/GRAND FORKS ND
1200 AM CST SAT DEC 20 2014

 **SATELLITE DATA USED TO AUGMENT SKY COVER AT AUTOMATED STATIONS**
 *****  WEATHER ACROSS EASTERN NORTH DAKOTA  *****

CITY           SKY/WX    TMP DP  RH WIND       PRES   REMARKS
GRAND FORKS    CLOUDY    29  28  96 S6        30.00S WCI  23
6HR MIN TEMP:  29; 6HR MAX TEMP:  30;

GRAND FRKS AFB CLOUDY    29  29 100 W6        30.00S WCI  23
GRAND FRKS NWS   N/A     30 N/A N/A SW2         N/A
DEVILS LAKE    CLOUDY    25  18  74 W3        29.95R
6HR MIN TEMP:  25; 6HR MAX TEMP:  28;

FARGO          CLOUDY    32  28  85 S13       30.01F WCI  22
WAHPETON ARPT  CLOUDY    30  28  93 S7        30.04R WCI  23
$$

 ***** WEATHER ACROSS CENTRAL AND WESTERN NORTH DAKOTA  *****

CITY           SKY/WX    TMP DP  RH WIND       PRES   REMARKS
BISMARCK       FOG       16  14  92 NE3       29.96S VSB 3/4
MINOT          LGT SNOW  23  20  88 SW5       29.93S VSB 1   WCI  17
6HR MIN TEMP:  23; 6HR MAX TEMP:  26;

JAMESTOWN      CLOUDY    22  20  92 SW6       29.96R WCI  14
6HR MIN TEMP:  21; 6HR MAX TEMP:  26;

MINOT AFB      FRZ DRZL  23  23 100 SW2       29.93F FOG
GARRISON         N/A     26  24  92 CALM      29.93R
WILLISTON      FOG       14  11  87 CALM      29.89F VSB 1/2
DICKINSON      CLEAR     22  16  78 S3        29.87S
6HR MIN TEMP:  21; 6HR MAX TEMP:  33;

HETTINGER      CLEAR     15  12  88 NW3       29.91F
6HR MIN TEMP:  14; 6HR MAX TEMP:  29;

$$

 *****  OTHER AIRPORT OBSERVATIONS IN OUR AREA  *****

CITY           SKY/WX    TMP DP  RH WIND       PRES   REMARKS
WALHALLA         N/A     27  27 100 CALM      30.00S FOG
GRAFTON AIRPOR NOT AVBL
VALLEY CITY AR MIX PCPN  25  25 100 S12       29.97S VSB 3/4 WCI  14
CANDO          CLOUDY    25  25 100 CALM      29.97S FOG
CAVALIER APRT  CLOUDY    27  27 100 CALM      30.00S FOG
GWINNER        CLOUDY    32  32 100 MISG      30.01S
ROLLA          CLOUDY    25  25 100 SW5       29.94F FOG     WCI  19
 ***** THE ABOVE OBSERVATIONS ARE NON NWS ARE NOT QUALITY
       CONTROLLED AND MAY MIS-REPORT RAIN FOR SNOW...
$$

  *****  WEATHER ACROSS NORTHERN MINNESOTA  *****

CITY           SKY/WX    TMP DP  RH WIND       PRES   REMARKS
FLAG ISLAND    CLOUDY    25  23  93 S12       30.03S FOG     WCI  14
WARROAD        CLOUDY    27  21  80 SE7       30.03S FOG     WCI  19
ROSEAU         CLOUDY    27  21  80 SE7       30.02S HAZE    WCI  19
HALLOCK        CLOUDY    28  28 100 CALM      30.00S FOG
THF RVR FALLS  CLOUDY    28  27  93 SE6       30.01S WCI  22
6HR MIN TEMP:  27; 6HR MAX TEMP:  27;

BAUDETTE       LGT SNOW  25  22  88 SE6       30.04S FOG     WCI  18
6HR MIN TEMP:  24; 6HR MAX TEMP:  25; 6HR PCP: TRACE;

WASKISH        LGT SNOW  27  25  93 CALM      30.04S
CROOKSTON      CLOUDY    30  28  93 SW9       30.02S FOG     WCI  22
STEPHEN NDAWN    N/A     28  28 100 S6          N/A  WCI  22
GREENBUSH NDAW   N/A     27  27 100 SE1         N/A
$$
  *****  WEATHER ACROSS CENTRAL AND WEST MINNESOTA  *****

CITY           SKY/WX    TMP DP  RH WIND       PRES   REMARKS
FOSSTON        CLOUDY    27  27 100 S9        30.01S FOG     WCI  17
BEMIDJI        LGT SNOW  26  25  99 SE5       30.02S WCI  20
PARK RAPIDS    CLOUDY    30  28  92 S9        30.02S FOG     WCI  22
6HR MIN TEMP:  25; 6HR MAX TEMP:  29; 6HR PCP:  0.01;

ELBOW LAKE     CLOUDY    29  29  99 S17       30.03F FOG     WCI  17
6HR MIN TEMP:  29; 6HR MAX TEMP:  30;

WADENA         CLOUDY    28  28 100 S9        30.03S FOG     WCI  20
DETROIT LAKES  CLOUDY    30  30 100 S10       30.02S FOG     WCI  21
MOORHEAD       CLOUDY    30  30 100 S7        30.03S FOG     WCI  23
FERGUS FALLS   CLOUDY    30  28  93 S9        30.06S FOG     WCI  22
MORRIS MN      MOCLDY    30  28  93 S10       30.05R FOG     WCI  21
STAPLES        CLOUDY    28  28 100 S6        30.05S FOG     WCI  22
$$
  *****  WEATHER ELSEWHERE ACROSS MINNESOTA  *****

CITY           SKY/WX    TMP DP  RH WIND       PRES   REMARKS
DULUTH         CLOUDY    25  22  88 SE6       30.12F FOG     WCI  18
6HR MIN TEMP:  24; 6HR MAX TEMP:  25; 6HR PCP: TRACE;

INTRNTL FALLS  LGT SNOW  24  22  91 SE6       30.07S FOG     WCI  17
6HR MIN TEMP:  24; 6HR MAX TEMP:  25; 6HR PCP:  0.01;

ELY            CLOUDY    25  21  86 S3        30.10F
CLOQUET        CLOUDY    25  23  93 SE5       30.12S FOG     WCI  19
WHEATON        CLOUDY    28  27  93 S6        30.05F WCI  22
BRAINERD       CLOUDY    27  26  96 S8        30.08S FOG     WCI  19
6HR MIN TEMP:  25; 6HR MAX TEMP:  27;

HIBBING        LGT SNOW  25  22  88 SE7       30.09F FOG     WCI  17
6HR MIN TEMP:  24; 6HR MAX TEMP:  25; 6HR PCP: TRACE;

ALEXANDRIA     CLOUDY    30  27  88 S15       30.06S FOG     WCI  19
6HR MIN TEMP:  29; 6HR MAX TEMP:  30; 6HR PCP: TRACE;

SAINT CLOUD    CLOUDY    32  27  81 S12       30.11S HAZE    WCI  23
6HR MIN TEMP:  30; 6HR MAX TEMP:  32;

MINNEAPOLIS    CLOUDY    29  24  82 S9        30.17S HAZE    WCI  20
6HR MIN TEMP:  29; 6HR MAX TEMP:  30;

$$

  *****  WEATHER ACROSS SOUTH DAKOTA  *****

CITY           SKY/WX    TMP DP  RH WIND       PRES   REMARKS
SIOUX FALLS    CLOUDY    31  28  89 S10       30.06F WCI  22
6HR MIN TEMP:  31; 6HR MAX TEMP:  31;

BROOKINGS      NOT AVBL
WATERTOWN      CLOUDY    29  27  92 S13       30.01S FOG     WCI  19
6HR MIN TEMP:  28; 6HR MAX TEMP:  29;

HURON          CLOUDY    28  26  92 S8        30.02F FOG     WCI  20
6HR MIN TEMP:  28; 6HR MAX TEMP:  30;

SISSETON         N/A     30  28  92 SW10      30.01F WCI  21
ABERDEEN       NOT AVBL
MITCHELL       NOT AVBL
PIERRE         FOG       15  13  91 CALM      29.96F VSB 1
6HR MIN TEMP:  14; 6HR MAX TEMP:  22;

MOBRIDGE       NOT AVBL
RAPID CITY     NOT AVBL
$$

  *****  SOME WEATHER IN NEARBY STATES *****

CITY           SKY/WX    TMP DP  RH WIND       PRES   REMARKS
GLASGOW MT     CLOUDY    30  25  81 E13       29.83R WCI  20
6HR MIN TEMP:  27; 6HR MAX TEMP:  30;

GREAT FALLS MT PTCLDY    38  28  67 SW21      29.82S
6HR MIN TEMP:  37; 6HR MAX TEMP:  43;

CHEYENNE WY    PTCLDY    31  15  52 W8        29.98S WCI  23
6HR MIN TEMP:  29; 6HR MAX TEMP:  34;

SCOTTSBLUFF NE CLEAR     16  12  84 CALM      29.99S
6HR MIN TEMP:  15; 6HR MAX TEMP:  31;

OMAHA NE       FRZ DRZL  31  29  92 SE12      30.14F FOG     WCI  22
DES MOINES IA  FLURRIES  32  30  92 S5        30.20S
6HR MIN TEMP:  32; 6HR MAX TEMP:  33; 6HR PCP: TRACE;

DAVENPORT IA   NOT AVBL
CHICAGO IL     CLOUDY    28  22  78 CALM      30.26R
6HR MIN TEMP:  28; 6HR MAX TEMP:  31;

EAU CLAIRE WI  CLOUDY    28  21  75 SE5       30.20F WCI  23
6HR MIN TEMP:  27; 6HR MAX TEMP:  28;

LA CROSSE WI   CLOUDY    30  22  72 S8        30.24S WCI  22
6HR MIN TEMP:  30; 6HR MAX TEMP:  30;

$$

  *****  SOME NATIONAL WEATHER *****

CITY           SKY/WX    TMP DP  RH WIND       PRES   REMARKS
LA GUARDIA NY  CLOUDY    32  21  64 N14       30.19F WCI  22
6HR MIN TEMP:  32; 6HR MAX TEMP:  33;

RALEIGH NC     CLOUDY    37  30  75 CALM      30.23R
6HR MIN TEMP:  36; 6HR MAX TEMP:  43;

ATLANTA GA     NOT AVBL
NEW ORLEANS LA LGT RAIN  51  48  89 NE14      30.08R FOG
6HR MIN TEMP:  50; 6HR MAX TEMP:  52; 6HR PCP:  0.62;

OKLAHOMA CITY  NOT AVBL
ALBUQUERQUE NM PTCLDY    34  24  67 N7        30.21R
6HR MIN TEMP:  34; 6HR MAX TEMP:  41;

SALT LAKE CITY CLOUDY    41  30  65 N3        30.15R
6HR MIN TEMP:  40; 6HR MAX TEMP:  44;

LOS ANGELES CA MOCLDY    58  49  72 NW5       30.19R
6HR MIN TEMP:  58; 6HR MAX TEMP:  60;

BOISE ID       PTCLDY    38  34  85 SE9       30.08F
6HR MIN TEMP:  38; 6HR MAX TEMP:  43; 6HR PCP:  0.02;

SEATTLE WA     CLOUDY    47  36  65 SE9       29.87F
6HR MIN TEMP:  46; 6HR MAX TEMP:  50;

$$

*** WEATHER ACROSS MANITOBA...SASKATCHEWAN AND ONTARIO ***
                ***ONTARIO***

CITY           SKY/WX    TMP DP  RH WIND       PRES   REMARKS
GERALDTON      LGT SNOW  -2  -6  84 CALM      30.21


USA.gov is the U.S. government's official web portal to all federal, state and local government web resources and services.